PSLV R/B, 44862

Orbit data source: Space-Track

PSLV R/B, 44862 is space debris in LEO originally from a launch on Wed, 11 Dec 2019 UTC launched from the Sirharikota (SRI). Debris objects in space refer to the collection of defunct objects orbiting the Earth. Examples of debris include non-operational satellites, rocket bodies, and fragments generated from explosions, collisions, or faulty payload assembly.

Loading next visibility...
PSLV R/B details
Identifier
44862, 2019-089L
Orbit
LEO
Last TLE update20 hours ago
Origin
Flag of INISRO (IN / IND)
ManufacturerVSSC/LPSC
MissionSpacecraft
Bus & MotorPS-4, Unknown motor
Mass920 kg wet, 920 kg dry
Launch date (UTC)
2019-12-11 (5 years ago)
Launch vehicleUnknown
Launch site
Sirharikota (SRI)
Object type
Payload
Rocket body
Debris
Shape & HBRCyl + Cyl + 2 Nozzle, 3.238 m
Radar Cross Section6.185 m², Large (>1 m²)

Expand to show TLE details & history

TLE from 20 hours ago
0 PSLV R/B
1 44862U 19089L   24361.03588998  .00021064  00000-0  75285-3 0  9990
2 44862  36.9710 202.7037 0021399 165.8564 194.2790 15.27853501278761
Epoch: 2024-12-26T00:51Z
Definitive object data (Epoch: 2024-12-26T00:51:40.894Z)
Latitude
Longitude94.76225°
Altitude495.57 km
Speed7.611 km/s
True Right ascension13h 30m 48s
True Declination0° 00' 00"
Sunlit
Object was in daylight at TLE epoch
Visualization TLE readout
Latitude-6.40521°
Longitude80.99652°
Altitude496.926 km
Speed7.61 km/s
Apparent Right ascension10h 57m 16s
Apparent Declination-25° 21' 24"
Sunlit
Object is in daylight
Visualization observer readout
Local Sidereal Time20:35:11
Azimuth285.283° WNW
Elevation-57.024°
Doppler factor1
Orbital elements
Apogee altitude499.859 km
Perigee altitude470.485 km
Semi-major axis6,863.309 km
Eccentricity0.0021399
Inclination36.971°
RAAN202.7037°
Arg. of periapsis165.8564°
True anomaly194.21868°
Mean anomaly194.279°
Eccentric anomaly194.24882°
Mean motion3.81718 °/min
BSTAR0.00075285
Orbital period94.31 mins
Loading maneuver chart data...
Loading historical data...
Loading historical data...
Loading historical data...
Loading historical data...
Loading historical data...
Loading historical data...
Loading historical data...

PSLV R/B Visibility forecast

Observer location: undefined°, undefined

Span
Click to sort rows by Start time (UTC) header in descending order
Start Az.
Max El. time (UTC)
Max El. Az.
Max El.
End time (UTC)
End Az.
6 mins2024-12-26 21:41:14.032Z259.454° W2024-12-26 21:44:14.032Z203.612° SW26.286°2024-12-26 21:47:14.032Z139.733° SSE
5 mins2024-12-27 17:55:14.032Z229.32° WSW2024-12-27 17:57:14.032Z187.294° SSW31.406°2024-12-27 18:00:14.032Z103.876° ESE
6 mins2024-12-27 19:34:14.032Z255.135° W2024-12-27 19:37:14.032Z156.96° SSE37.485°2024-12-27 19:40:14.032Z106.398° ESE
|